sat.trackr.live / text

‹ back to catalog

STARLINK-11281 [DTC]

NORAD 60996 · 2024-158G

PAYLOAD ACTIVE UNKNOWN

§ Identity

Operator
Country
US
Launch date
2024-09-05
Launch site
AFETR
Launch vehicle
Mass (kg)
RCS (m²)

Purposes: comms

External: N2YO · Heavens-Above · Gunter

§ Orbital elements

Epoch: 2026-09-21T20:45:07.235712Z

Period
91.74 min
Inclination
53.1599°
Eccentricity
0.0001067
Mean motion
15.69707602 rev/d
Perigee alt
359.0 km
Apogee alt
360.5 km
Semi-major
6,737.9 km
B*
5.8040e-6
RAAN
34.3719°
Arg perigee
131.8141°
Mean anomaly
228.2968°
Rev number
11,839

§ Raw data

STARLINK-11281 [DTC]1 60996U 24158G   26264.86466708  .00000115  00000+0  58040-5 0  99932 60996  53.1599  34.3719 0001067 131.8141 228.2968 15.69707602118396

JSON: /api/v1/satellites/60996 · /tle

For live sub-satellite position, see the globe view (requires WebGL).

§ Visibility from observer

Set your observer location to see the next 7 days of passes ≥ 10°. The values pass through the URL so the page stays shareable.

No JS? Fill the form by hand. The geolocation button needs JavaScript.